Facebook Twitter

Wetterstation Berlin-Dahlem (FU)

Messwerte
  Temperatur Wetter Niederschlag Luftdruck Wind
Mo, 01:00 Uhr 1° - - 1026 hPa 14 km/h NO
Mo, 00:00 Uhr 3° - - 1026 hPa 14 km/h NO
So, 23:00 Uhr 3° 0 mm 1025 hPa 18 km/h NO
So, 22:00 Uhr 4° - 1025 hPa 14 km/h N
So, 21:00 Uhr 5° - 1025 hPa 14 km/h N
So, 20:00 Uhr 6° 0 mm 1024 hPa 14 km/h N

Böen 47 km/h
So, 19:00 Uhr 6° - 1024 hPa 18 km/h NO

Böen 47 km/h
So, 18:00 Uhr 7° - 1024 hPa 25 km/h N

Böen 47 km/h
So, 17:00 Uhr 9° 0.1 mm 1023 hPa 14 km/h NO
So, 16:00 Uhr 8° - 1023 hPa 18 km/h NO
So, 15:00 Uhr 8° - 1023 hPa 14 km/h NO
So, 14:00 Uhr 9° 0 mm 1023 hPa 14 km/h NO
So, 13:00 Uhr 7° - 1024 hPa 14 km/h NO
So, 12:00 Uhr 7° - 1024 hPa 18 km/h NO
So, 11:00 Uhr 7° 0 mm 1024 hPa 18 km/h O
So, 10:00 Uhr 5° - 1024 hPa 18 km/h O
So, 09:00 Uhr 3° - 1023 hPa 11 km/h O
So, 08:00 Uhr 2° 0 mm 1023 hPa 14 km/h O
So, 07:00 Uhr 0° - 1022 hPa 14 km/h O
So, 06:00 Uhr 0° - 1022 hPa 14 km/h NO

Alle Zeitangaben MESZ